Regional Weather Roundup
Issued by NWS

Home | Current Version | Previous Version | Text Only | Print | Product List | Glossary On
Versions: 1 2 3 4 5 6 7 8 9 10 11 12 13 14 15 16 17 18 19 20 21 22 23 24 25 26 27 28 29 30 31 32 33 34 35 36 37 38 39 40 41 42 43 44 45 46 47 48 49 50
000
ASUS43 KMKX 251659
RWRWI

WISCONSIN REGIONAL WEATHER ROUNDUP
NATIONAL WEATHER SERVICE MILWAUKEE/SULLIVAN WI
1200 PM CDT FRI JUL 25 2014

NOTE: "FAIR" INDICATES FEW OR NO CLOUDS BELOW 12,000 FEET WITH NO
SIGNIFICANT WEATHER AND/OR OBSTRUCTIONS TO VISIBILITY.

WIZ001-002-006>008-014>016-023>028-251800-
NORTHWEST WISCONSIN

CITY           SKY/WX    TMP DP  RH WIND       PRES   REMARKS
SUPERIOR ARPT  CLOUDY    61  57  86 NE3       29.81R
ASHLAND        PTSUNNY   70  62  76 S8        29.83S
HAYWARD        CLOUDY    68  62  81 S10       29.83F
SIREN          CLOUDY    70  65  84 S5        29.82F
RICE LAKE      CLOUDY    66  61  83 SE6       29.87S
LADYSMITH      CLOUDY    66  61  82 S5        29.89F
EAU CLAIRE     NOT AVBL
MENOMONIE      CLOUDY    70  64  82 S7G16     29.84R
NEW RICHMOND   CLOUDY    71  64  78 SW10      29.83R
OSCEOLA        CLOUDY    72  68  86 SW9G16    29.85R
$$

WIZ003>005-009-010-017-018-251800-
NORTH CENTRAL WISCONSIN

CITY           SKY/WX    TMP DP  RH WIND       PRES   REMARKS
WOODRUFF       CLOUDY    69  62  76 SW12      29.89R
RHINELANDER    CLOUDY    66  59  78 SW12      29.91R
EAGLE RIVER    CLOUDY    67  58  71 S6        29.88F
LAND O LAKES   CLOUDY    67  59  74 SW9       29.89F
PHILLIPS       CLOUDY    65  60  83 SW8       29.89R
TOMAHAWK       CLOUDY    66  59  78 SW7       29.90F
MEDFORD        CLOUDY    64  59  85 S9        29.90R
MERRILL        CLOUDY    67  61  80 S6        29.89F
$$

WIZ029-030-035-036-043>047-251800-
CENTRAL WISCONSIN

CITY           SKY/WX    TMP DP  RH WIND       PRES   REMARKS
WAUSAU         CLOUDY    65  59  81 S12       29.88F
MOSINEE        CLOUDY    63  63 100 S9        29.92F
MARSHFIELD     CLOUDY    64  59  83 S5        29.91R
STEVENS POINT  DRIZZLE   63  56  80 S6        29.91S
WAUPACA        CLOUDY    69  59  70 SW7       29.93F
WAUTOMA        NOT AVBL
WISC RAPIDS    CLOUDY    66  59  78 VRB6      29.92R
CAMP DOUGLAS   CLOUDY    63  63 100 SE6       29.91F
$$

WIZ011>013-019>022-031-037>040-048>050-251800-
NORTHEAST WISCONSIN

CITY           SKY/WX    TMP DP  RH WIND       PRES   REMARKS
ANTIGO         CLOUDY    64  59  85 S9        29.92S
STURGEON BAY   CLOUDY    72  55  56 S12       29.93R
GREEN BAY      LGT RAIN  68  60  75 S9        29.93S
MANITOWOC      NOT AVBL
APPLETON       CLOUDY    68  55  64 SW12      29.94S
CLINTONVILLE   DRIZZLE   66  59  77 S8        29.91F
OSHKOSH        CLOUDY    68  59  73 S12       29.93F
$$

WIZ032>034-041-042-053>061-251800-
SOUTHWEST WISCONSIN

CITY           SKY/WX    TMP DP  RH WIND       PRES   REMARKS
LA CROSSE      CLOUDY    69  61  75 S15       29.86F
SPARTA         CLOUDY    64  60  87 CALM      29.92R
VIROQUA        CLOUDY    65  61  87 S6        29.91F
BOSCOBEL       CLOUDY    68  59  73 SW8       29.92R
PRAIRIE DU CHI CLOUDY    65  58  78 W7        29.91R
PLATTEVILLE    PTSUNNY   63  60  89 W3G17     29.91R
$$

WIZ056-057-062-063-064-067-068-251800-
SOUTH CENTRAL WISCONSIN

CITY           SKY/WX    TMP DP  RH WIND       PRES   REMARKS
BARABOO/DELLS  DRIZZLE   63  58  84 S5        29.93S
LONE ROCK      NOT AVBL
WATERTOWN      LGT RAIN  64  60  88 S3        29.95F
MADISON        CLOUDY    67  58  72 S8G18     29.93F
MIDDLETON      CLOUDY    67  57  69 S12G18    29.92F
MONROE         CLOUDY    63  59  88 S17G28    29.90F
JANESVILLE     NOT AVBL
$$

WIZ051-052-058>065-066-070>072-251800-
SOUTHEAST WISCONSIN

CITY           SKY/WX    TMP DP  RH WIND       PRES   REMARKS
MILWAUKEE      CLOUDY    72  55  55 SW15G22   29.96S
WAUKESHA       NOT AVBL
MILWAUKEE/TIMM SUNNY     70  54  56 SW7G18    29.97R
RACINE         PTSUNNY   74  56  53 S17G24    29.98F
BURLINGTON     PTSUNNY   69  58  68 S13G20    29.97S
KENOSHA        PTSUNNY   73  56  54 SW15G23   29.98F
FOND DU LAC    CLOUDY    67  57  70 SW13      29.95S
SHEBOYGAN      CLOUDY    72  57  59 SW17      29.95R
WEST BEND      DRIZZLE   68  54  60 SW7       29.96R
JUNEAU         LGT RAIN  63  58  82 S7        29.97S
$$

LSZ147-162-251800-
LAKE SUPERIOR

STATION/POSITION TIME  TEMP    WIND        PRES    WAVE
                       AIR SEA DIR/SP/G            HT/PER
                 (UTC) (F)     (DEG/KT/KT) (MB)    (FT/S)
$$

LMZ867-665-643>646-251800-
LAKE MICHIGAN

STATION/POSITION TIME  TEMP    WIND        PRES    WAVE
                       AIR SEA DIR/SP/G            HT/PER
                 (UTC) (F)     (DEG/KT/KT) (MB)    (FT/S)
$$

TC  - TEMPERATURE IN CELSIUS
VSB - VISIBILITY IN STATUTE MILES
WCI - WIND CHILL INDEX
HX  - HEAT INDEX




USA.gov is the U.S. government's official web portal to all federal, state and local government web resources and services.